This is the latest recevied weather packets stored in our database for station/object KC9GSD. If no packets are shown the sender has not sent any weather packets the latest 10 day(s).
| Time | Temp. | Humidity | Pressure | Rain* | Wind** | Luminosity | Snow |
|---|---|---|---|---|---|---|---|
| 1778101165 | 23.33° C | 80% | 1011.1 hPa | 0 mm | - | 35 W/m² | - |
| 1778100861 | 23.33° C | 80% | 1010.9 hPa | 0 mm | - | 23 W/m² | - |
| 1778100557 | 23.89° C | 80% | 1010.9 hPa | 0 mm | - | 67 W/m² | - |
| 1778100255 | 23.89° C | 79% | 1011.1 hPa | 0 mm | - | 102 W/m² | - |
| 1778099953 | 24.44° C | 79% | 1011.1 hPa | 0 mm | - | 135 W/m² | - |
| 1778099650 | 24.44° C | 78% | 1011.3 hPa | 0 mm | - | 203 W/m² | - |
| 1778099346 | 23.89° C | 78% | 1011.1 hPa | 0 mm | - | 241 W/m² | - |
| 1778099044 | 23.89° C | 79% | 1011.4 hPa | 0 mm | - | 184 W/m² | - |
| 1778098740 | 23.89° C | 78% | 1011.4 hPa | 0 mm | - | 123 W/m² | - |
| 1778098438 | 23.89° C | 78% | 1011.8 hPa | 0 mm | - | 102 W/m² | - |
| 1778098134 | 23.89° C | 78% | 1011.8 hPa | 0 mm | - | 138 W/m² | - |
| 1778097830 | 23.89° C | 77% | 1012 hPa | 0 mm | - | 112 W/m² | - |
| 1778097526 | 24.44° C | 78% | 1011.9 hPa | 0 mm | - | 190 W/m² | - |
| 1778097224 | 24.44° C | 77% | 1011.8 hPa | 0 mm | - | 190 W/m² | - |
| 1778096921 | 23.89° C | 77% | 1011.9 hPa | 0 mm | - | 373 W/m² | - |
| 1778096617 | 23.89° C | 79% | 1012.1 hPa | 0 mm | - | 77 W/m² | - |
| 1778096315 | 23.89° C | 78% | 1012.2 hPa | 0 mm | - | 93 W/m² | - |
| 1778096011 | 23.89° C | 77% | 1012.3 hPa | 0 mm | - | 134 W/m² | - |
| 1778095708 | 24.44° C | 77% | 1012.4 hPa | 0 mm | - | 77 W/m² | - |
| 1778095405 | 24.44° C | 76% | 1012.4 hPa | 0 mm | - | 173 W/m² | - |
| 1778095102 | 24.44° C | 75% | 1012.6 hPa | 0 mm | - | 123 W/m² | - |
| 1778094798 | 24.44° C | 75% | 1012.4 hPa | 0 mm | - | 123 W/m² | - |
| 1778094495 | 25° C | 76% | 1012.5 hPa | 0 mm | - | 164 W/m² | - |
| 1778094192 | 25° C | 74% | 1012.6 hPa | 0 mm | - | 114 W/m² | - |
| 1778093889 | 25° C | 73% | 1012.8 hPa | 0 mm | - | 259 W/m² | - |
* Rain latest hour (hover to see other rain measurements)
** Current wind speed in m/s (hover to see current wind gust speed)